Moses Lake, WA

12:24 AM PDT on October 20, 2017 (GMT -0700)
Grant County International

Weather History for KMWH - October, 2013

Change the Weather History Date:

Tuesday, October 8, 2013

  Actual Average Record
Temperature  
Mean Temperature 51 °F 52 °F  
Max Temperature 63 °F 67 °F 78 °F (1980)
Min Temperature 39 °F 38 °F 30 °F (1997)
Degree Days  
Heating Degree Days 14 12  
Month to date heating degree days 113 87  
Since 1 July heating degree days 215 237  
Cooling Degree Days 0 0  
Month to date cooling degree days 0 0  
Year to date cooling degree days 948 614  
Growing Degree Days 6 (Base 50)    
Moisture  
Dew Point 36 °F    
Average Humidity 62    
Maximum Humidity 92    
Minimum Humidity 32    
Precipitation  
Precipitation T in 0.01 in 0.29 in (1997)
Month to date precipitation T 0.12  
Year to date precipitation 5.24 5.94  
Sea Level Pressure  
Sea Level Pressure 29.92 in    
Wind  
Wind Speed 9 mph (NW)    
Max Wind Speed 22 mph    
Max Gust Speed 29 mph    
Visibility 10 miles    
Events Rain    
T = Trace of Precipitation, MM = Missing Value Source: NWS Daily Summary

Daily Weather History Graph

Daily Weather History Graph

Search for Another Location

Airport or City:

Trip Planner

Search our weather history database for the weather conditions in past years. The results will help you decide how hot, cold, wet, or windy it might be!

Date:

Astronomy

Oct. 08, 2013 Rise Set
Actual Time 7:06 AM PDT 6:22 PM PDT
Civil Twilight 6:35 AM PDT 6:52 PM PDT
Nautical Twilight 6:00 AM PDT 7:28 PM PDT
Astronomical Twilight 5:24 AM PDT 8:03 PM PDT
Moon 11:20 AM PDT (10/8) 8:47 PM PDT (10/8)
Length of Visible Light 12h 17m
Length of Day
11h 16m
Waxing Crescent, 17% of the Moon is Illuminated
Oct 8
Waxing Crescent
Oct 11
First Quarter
Oct 18
Full
Oct 26
Last Quarter
Nov 3
New

Hourly Weather History & Observations

Time (PDT) Temp. Windchill Dew Point Humidity Pressure Visibility Wind Dir Wind Speed Gust Speed Precip Events Conditions
12:52 AM 46.9 °F - 37.0 °F 68% 29.90 in 10.0 mi SSW 3.5 mph - N/A   Partly Cloudy
1:52 AM 45.0 °F 42.6 °F 36.0 °F 71% 29.91 in 10.0 mi South 4.6 mph - N/A   Partly Cloudy
2:52 AM 48.0 °F - 37.9 °F 68% 29.88 in 10.0 mi SSW 4.6 mph - N/A   Clear
3:52 AM 48.0 °F - 39.0 °F 71% 29.88 in 10.0 mi SW 5.8 mph - N/A   Clear
4:52 AM 46.9 °F - 37.0 °F 68% 29.88 in 10.0 mi SW 8.1 mph - N/A   Clear
5:52 AM 50.0 °F - 37.9 °F 63% 29.89 in 10.0 mi SW 8.1 mph - N/A   Clear
6:52 AM 48.0 °F - 37.9 °F 68% 29.88 in 10.0 mi Calm Calm - N/A   Clear
7:52 AM 48.9 °F - 37.9 °F 66% 29.88 in 10.0 mi SSW 8.1 mph - N/A   Scattered Clouds
8:52 AM 52.0 °F - 37.9 °F 59% 29.88 in 10.0 mi SSW 11.5 mph - N/A   Clear
9:52 AM 55.9 °F - 37.0 °F 49% 29.88 in 10.0 mi SSW 9.2 mph - N/A   Clear
10:52 AM 60.1 °F - 34.0 °F 38% 29.87 in 10.0 mi West 18.4 mph 21.9 mph N/A   Clear
10:55 AM 69.8 °F - 46.4 °F 43% 30.20 in 10.0 mi ENE 11.5 mph - N/A   Clear
11:52 AM 61.0 °F - 35.1 °F 38% 29.87 in 10.0 mi SW 16.1 mph - N/A   Mostly Cloudy
12:28 PM 53.6 °F - 41.0 °F 62% 29.88 in 10.0 mi North 17.3 mph - 0.00 in Rain Light Rain
12:52 PM 54.0 °F - 41.0 °F 62% 29.89 in 10.0 mi NNW 16.1 mph 21.9 mph 0.00 in Rain Light Rain
1:52 PM 60.1 °F - 35.1 °F 39% 29.87 in 10.0 mi North 16.1 mph 19.6 mph 0.00 in   Partly Cloudy
2:52 PM 57.9 °F - 30.9 °F 36% 29.89 in 10.0 mi North 11.5 mph 17.3 mph N/A   Mostly Cloudy
3:52 PM 60.1 °F - 30.9 °F 33% 29.88 in 10.0 mi North 4.6 mph - N/A   Clear
4:52 PM 57.0 °F - 32.0 °F 39% 29.89 in 10.0 mi NNE 8.1 mph - N/A   Partly Cloudy
5:52 PM 55.0 °F - 30.9 °F 40% 29.91 in 10.0 mi NNE 4.6 mph - N/A   Scattered Clouds
6:52 PM 53.1 °F - 33.1 °F 47% 29.94 in 10.0 mi NNW 11.5 mph - N/A   Mostly Cloudy
7:52 PM 50.0 °F - 36.0 °F 59% 29.96 in 10.0 mi NW 6.9 mph - N/A   Scattered Clouds
8:52 PM 45.0 °F 42.6 °F 35.1 °F 68% 29.98 in 10.0 mi North 4.6 mph - N/A   Mostly Cloudy
9:52 PM 45.0 °F 40.1 °F 36.0 °F 71% 29.99 in 10.0 mi NE 9.2 mph - N/A   Scattered Clouds
10:52 PM 43.0 °F 38.8 °F 37.9 °F 82% 30.01 in 10.0 mi NE 6.9 mph - N/A   Scattered Clouds
11:52 PM 39.9 °F 35.1 °F 37.0 °F 89% 30.02 in 10.0 mi NNE 6.9 mph - N/A   Clear